[[{"header":{"parameterUnit":"m.s-1","parameterCategory":1,"la1":30.2991,"la2":30.254,"lo1":-89.0895,"lo2":-89.0444,"dy":0.0017,"dx":0.0017,"nx":28,"ny":28,"refTime":"2024-06-26T03:00:00:Z","depth":0,"parameterNumber":2,"parameterNumberName":"U-component_of_WINDS"},"data":[0,0,0,0,0,0,0,0,0,0,0,0,0,0,0,0,0,0,0,0,0,0,0,0,0,0,0,0,0,0,0,0,0,0,0,0,0,0,0,0,0,0,0,0,0,0,0,0,0,0,0,0,0,0,0,0,0,0,6.9132,6.9135,0,6.9384,6.9387,6.939,6.9357,6.9353,6.9349,6.9345,6.9606,6.9617,6.9627,0,0,0,0,0,0,0,0,0,0,0,0,0,6.8625,6.8635,6.9132,6.9135,6.9138,6.9383,6.9387,6.939,6.9358,6.9353,6.9348,6.9343,6.9603,6.9615,6.9628,0,0,0,0,0,0,0,0,0,0,0,0,0,6.8858,6.8638,6.9131,6.9151,6.9156,6.9383,6.9387,6.9391,6.9359,6.9353,6.9346,6.9341,6.9598,6.9614,6.963,6.9854,0,0,6.968,6.9687,0,0,0,0,0,0,0,0,6.8845,6.8877,6.9145,6.9151,6.9156,6.9333,6.9304,6.9547,6.936,6.9282,6.9345,6.9338,6.952,6.9543,6.9604,6.9866,6.9878,6.9681,6.9691,6.9698,6.9702,0,0,0,0,0,0,0,6.8829,6.8866,6.9232,6.9149,6.9156,6.9149,6.9175,6.935,6.9433,6.9288,6.9286,6.9317,6.9522,6.9588,6.9609,6.9881,6.9681,6.9695,6.9705,6.9711,7.034,7.0346,0,0,0,0,0,0,6.8807,6.8853,6.9224,6.9239,6.8982,6.9163,6.9192,6.9282,6.9431,6.9448,6.9322,6.9314,6.9563,6.9591,6.9618,6.9889,6.9698,6.9713,6.9722,7.0333,7.0341,7.0349,0,0,0,0,0,0,6.8796,6.8841,6.9214,6.9046,6.9092,6.9178,6.928,6.929,6.9356,6.9456,6.9471,6.9374,6.956,6.9596,6.9795,6.9898,6.972,6.9735,7.0324,7.0335,7.0345,7.0433,0,0,0,0,0,0,6.8782,6.8837,6.8922,6.9048,6.9102,6.9386,6.9286,6.93,6.9384,6.9377,6.9509,6.9525,6.9557,6.9771,6.9811,6.9917,6.9748,7.0316,7.0329,7.0342,7.0421,7.0445,7.0466,0,0,0,0,0,6.8764,6.8938,6.8927,6.8972,6.921,6.9392,6.9422,6.9456,6.9392,6.9479,6.9543,6.9521,6.9881,6.9792,6.9837,6.9949,7.0309,7.0325,7.0341,7.0412,7.0441,7.0465,0,0,0,0,0,0,6.8824,6.8955,6.8944,6.9164,6.9267,6.9386,6.9496,6.9486,6.9609,6.9597,6.9634,6.9665,6.9866,6.9928,6.9827,7.0173,7.0086,7.0112,7.0125,7.0153,7.0175,7.0155,6.9761,0,0,0,0,0,6.8862,6.8998,6.9106,6.9289,6.9341,6.941,6.949,6.9507,6.9615,6.9659,6.9738,6.9845,6.9982,7.0071,7.0203,7.0431,7.0459,7.053,7.0552,7.057,7.0591,7.0715,7.0747,7.04,7.04,7.04,0,0,6.8944,6.9032,6.9116,6.9304,6.9385,6.9525,6.9447,6.9599,6.9703,6.9683,6.9875,6.9937,7.0059,7.0273,7.0371,7.033,7.0693,7.059,7.0603,7.0615,7.0734,7.0767,7.0796,7.0411,7.0409,7.0407,0,0,6.9163,6.9244,6.9405,6.9488,6.9612,6.9657,6.9696,6.9817,6.9856,7.005,7.0037,7.0163,7.0398,7.0485,7.056,7.0812,7.0796,7.0855,7.097,7.109,7.1117,7.1141,7.1229,7.1261,7.0875,7.0876,7.0876,0,6.9249,6.9458,6.949,6.9643,6.9725,6.9712,6.9875,6.9955,7.0117,7.0174,7.0126,7.0421,7.0503,7.0736,7.0797,7.0859,7.0904,7.0839,7.111,7.1135,7.1158,7.1243,7.1276,7.0882,7.0881,7.0881,7.088,0,6.9556,6.9702,6.9817,6.9972,7.0068,7.0225,7.0281,7.0375,7.0383,7.0433,7.063,7.0727,7.0877,7.0935,7.0945,7.117,7.114,7.1102,7.1015,7.1197,7.1277,7.131,7.0891,7.0888,7.0887,7.0885,0,0,6.982,6.9989,7.0031,7.01,7.0236,7.0349,7.0507,7.0652,7.0731,7.0844,7.0976,7.1175,7.1139,7.1225,7.1245,7.1351,7.1542,7.1299,7.1302,7.1339,7.1794,7.1821,7.1858,7.1533,7.1539,7.1544,7.1783,0,7.0051,7.0326,7.0359,7.0605,7.0739,7.0729,7.0866,7.0965,7.1015,7.1137,7.1194,7.1334,7.1277,7.1328,7.1433,7.1497,7.1634,7.148,7.1656,7.1661,7.1623,7.19,7.1929,7.215,7.1815,7.182,7.1824,0,7.0357,7.0475,7.0734,7.085,7.0908,7.103,7.1166,7.1283,7.1395,7.1424,7.1519,7.1526,7.1688,7.1596,7.1821,7.1715,7.1789,7.1832,7.1841,7.1857,7.1752,7.1922,7.2221,7.2253,7.1874,7.187,7.1866,0,7.052,7.0745,7.0929,7.0989,7.113,7.1215,7.1278,7.1384,7.1469,7.1588,7.1644,7.1782,7.1857,7.1963,7.2007,7.1936,7.2228,7.214,7.2257,7.2256,7.2317,7.2312,7.2631,7.2369,7.2368,7.2367,7.2367,0,7.0773,7.0932,7.1003,7.1116,7.1293,7.133,7.1504,7.1564,7.1658,7.1782,7.1783,7.19,7.1951,7.2077,7.2112,7.2292,7.2326,7.2354,7.2362,7.2353,7.2349,7.2401,7.2386,7.2376,7.2374,7.2373,7.2371,0,7.0985,7.104,7.1239,7.1355,7.1388,7.1513,7.1614,7.1723,7.1772,7.193,7.1969,7.2047,7.2194,7.2248,7.2429,7.2452,7.2659,7.2655,7.2621,7.2622,7.2735,7.2722,7.3096,7.3146,7.2852,7.2855,7.2857,0,7.1142,7.1263,7.1392,7.1475,7.154,7.1674,7.176,7.1802,7.1892,7.2028,7.2121,7.2267,7.2386,7.2622,7.2695,7.2832,7.283,7.2952,7.2851,7.2838,7.2829,7.2821,7.2832,7.2969,7.2972,7.2975,7.2977,0,7.1414,7.1435,7.1559,7.1693,7.1795,7.1903,7.2008,7.2076,7.2133,7.2234,7.2384,7.2476,7.2659,7.2804,7.2945,7.301,7.3004,7.3008,7.3042,7.3033,7.3007,7.3021,7.2669,7.2999,7.2997,7.2995,7.2994,7.2993,7.1602,7.1708,7.1815,7.1953,7.2036,7.2134,7.2241,7.2304,7.2429,7.2579,7.2597,7.2757,7.2866,7.3054,7.3126,7.3252,7.322,7.3269,7.3281,7.3292,7.3299,7.2989,7.3279,7.3278,7.3278,7.3277,7.3277,0,7.1872,7.194,7.2067,7.2212,7.2321,7.2304,7.2419,7.2511,7.2651,7.2753,7.2869,7.3041,7.3181,7.3265,7.3406,7.3491,7.3491,7.3527,7.352,7.3535,7.3322,7.3277,7.3524,7.3524,7.3524,7.3524,7.3524,7.3524,7.2025,7.2204,7.2237,7.2457,7.2524,7.268,7.2747,7.2837,7.2917,7.3108,7.3224,7.3278,7.3373,7.352,7.3648,7.3669,7.372,7.3758,7.3776,7.3575,7.355,7.3525,7.3484,7.377,7.377,7.3978,7.398,7.3982]},{"header":{"parameterUnit":"m.s-1","parameterCategory":1,"la1":30.2991,"la2":30.254,"lo1":-89.0895,"lo2":-89.0444,"dy":0.0017,"dx":0.0017,"nx":28,"ny":28,"refTime":"2024-06-26T03:00:00:Z","depth":0,"parameterNumber":3,"parameterNumberName":"V-component_of_WINDS"},"data":[0,0,0,0,0,0,0,0,0,0,0,0,0,0,0,0,0,0,0,0,0,0,0,0,0,0,0,0,0,0,0,0,0,0,0,0,0,0,0,0,0,0,0,0,0,0,0,0,0,0,0,0,0,0,0,0,0,0,0.9652,0.9653,0,0.9706,0.9707,0.9708,0.9685,0.9684,0.9682,0.9681,0.9739,0.9741,0.9744,0,0,0,0,0,0,0,0,0,0,0,0,0,0.953,0.9533,0.9652,0.9653,0.9654,0.9706,0.9707,0.9708,0.9685,0.9684,0.9682,0.9681,0.9738,0.9741,0.9744,0,0,0,0,0,0,0,0,0,0,0,0,0,0.9584,0.9534,0.9652,0.9649,0.9649,0.9706,0.9707,0.9708,0.9686,0.9684,0.9682,0.968,0.9737,0.9741,0.9745,0.9809,0,0,0.9757,0.9759,0,0,0,0,0,0,0,0,0.9581,0.9588,0.9648,0.9649,0.9649,0.9687,0.9685,0.9742,0.9686,0.9672,0.9681,0.9679,0.9723,0.9728,0.9743,0.9812,0.9814,0.9758,0.976,0.9762,0.9763,0,0,0,0,0,0,0,0.9577,0.9586,0.9674,0.9649,0.965,0.9645,0.965,0.9696,0.9708,0.9673,0.9671,0.9678,0.9723,0.9739,0.9744,0.9815,0.9758,0.9761,0.9764,0.9765,0.994,0.9942,0,0,0,0,0,0,0.9573,0.9583,0.9672,0.9675,0.961,0.9649,0.9655,0.9677,0.9707,0.971,0.9679,0.9677,0.9733,0.9739,0.9746,0.9824,0.9762,0.9766,0.9768,0.9938,0.9941,0.9943,0,0,0,0,0,0,0.9571,0.9581,0.967,0.9629,0.964,0.9653,0.9678,0.9679,0.9695,0.9712,0.9714,0.9693,0.9732,0.974,0.9794,0.9826,0.9768,0.9771,0.9935,0.9939,0.9942,0.998,0,0,0,0,0,0,0.9567,0.9581,0.9605,0.9629,0.9642,0.9716,0.968,0.9681,0.9702,0.9698,0.9726,0.9729,0.9731,0.9788,0.9798,0.983,0.9775,0.9933,0.9937,0.9941,0.9976,0.9985,0.9992,0,0,0,0,0,0.9563,0.9614,0.9607,0.9617,0.9673,0.9718,0.9725,0.9726,0.9704,0.9729,0.974,0.9728,0.982,0.9793,0.9804,0.9839,0.9931,0.9936,0.994,0.9973,0.9983,0.9991,0,0,0,0,0,0,0.9594,0.9617,0.9609,0.967,0.9692,0.9714,0.9746,0.9737,0.9766,0.9762,0.9762,0.9769,0.9824,0.9836,0.9806,0.9903,0.9872,0.988,0.9893,0.9903,0.991,0.9907,0.9778,0,0,0,0,0,0.9608,0.9643,0.9661,0.9713,0.9724,0.9733,0.9753,0.9751,0.9775,0.9785,0.98,0.9823,0.9858,0.9881,0.9913,0.9977,0.9983,1.0006,1.0014,1.002,1.0027,1.0062,1.0073,0.9959,0.9959,0.9959,0,0,0.9637,0.9654,0.9676,0.9719,0.9737,0.9773,0.9741,0.9781,0.9808,0.9791,0.9842,0.9854,0.9881,0.994,0.9967,0.9952,1.0059,1.0026,1.0031,1.0035,1.0068,1.0079,1.0089,0.9962,0.9962,0.9961,0,0,0.9709,0.9725,0.977,0.9788,0.9814,0.9819,0.983,0.9853,0.986,0.9911,0.9899,0.9931,0.999,1.001,1.0028,1.0105,1.0095,1.0116,1.0157,1.0191,1.02,1.0208,1.0237,1.0247,1.0122,1.0123,1.0123,0,0.9743,0.9797,0.9795,0.9835,0.9855,0.9839,0.9885,0.9902,0.9938,0.9952,0.9935,1.0008,1.0025,1.0089,1.0107,1.0122,1.0135,1.0114,1.0199,1.0207,1.0214,1.0241,1.0252,1.0125,1.0125,1.0124,1.0124,0,0.9837,0.9874,0.9907,0.9941,0.9964,1.0007,1.0012,1.0036,1.0032,1.0039,1.0091,1.0111,1.0147,1.0161,1.0158,1.0225,1.0215,1.0198,1.0168,1.0227,1.0253,1.0264,1.0128,1.0128,1.0127,1.0126,0,0,0.9932,0.9963,0.9976,0.9991,1.0018,1.0047,1.0089,1.0124,1.0144,1.0169,1.0205,1.0254,1.0239,1.0259,1.0257,1.0287,1.0349,1.0267,1.0267,1.0282,1.0424,1.0438,1.045,1.0341,1.0343,1.0345,1.0422,0,1.0007,1.0081,1.0079,1.0148,1.0183,1.0168,1.0205,1.0225,1.0233,1.0264,1.0272,1.0308,1.0284,1.0296,1.0324,1.0335,1.0377,1.0329,1.0376,1.0377,1.0371,1.0463,1.0478,1.055,1.0432,1.0434,1.0435,0,1.0105,1.0132,1.0204,1.0225,1.024,1.0273,1.0305,1.0334,1.0357,1.036,1.0382,1.0376,1.0419,1.0386,1.0446,1.0413,1.0431,1.0439,1.0442,1.0448,1.0411,1.0473,1.0573,1.0585,1.0451,1.045,1.0448,0,1.0169,1.0223,1.0273,1.0286,1.0312,1.0336,1.0348,1.0369,1.039,1.0417,1.0431,1.0463,1.0481,1.0506,1.0509,1.0484,1.057,1.0536,1.0574,1.0575,1.0595,1.0594,1.0701,1.0604,1.0604,1.0604,1.0603,0,1.0253,1.0298,1.0302,1.0333,1.0383,1.0381,1.043,1.044,1.0459,1.0492,1.048,1.0511,1.0512,1.0544,1.0546,1.0596,1.0604,1.0608,1.0609,1.061,1.061,1.0624,1.062,1.0607,1.0606,1.0605,1.0605,0,1.0334,1.0338,1.0392,1.0411,1.0417,1.0453,1.047,1.05,1.0506,1.0548,1.0557,1.0567,1.0604,1.0608,1.0652,1.0653,1.0713,1.0707,1.0706,1.0705,1.0743,1.074,1.0865,1.0881,1.0772,1.0773,1.0774,0,1.0389,1.0423,1.0446,1.0467,1.048,1.0514,1.0534,1.0533,1.0556,1.0584,1.061,1.0646,1.0675,1.0734,1.0746,1.0779,1.0774,1.0816,1.0779,1.078,1.0777,1.0775,1.0779,1.0823,1.0825,1.0825,1.0826,0,1.0486,1.0486,1.0516,1.0547,1.0572,1.0596,1.0619,1.0637,1.0639,1.0664,1.0701,1.0724,1.0767,1.0803,1.0835,1.0848,1.0838,1.0837,1.0848,1.0851,1.0849,1.0852,1.0726,1.0835,1.0834,1.0833,1.0833,1.0833,1.0556,1.0585,1.0606,1.064,1.0657,1.0678,1.0707,1.0716,1.0747,1.0782,1.0779,1.0821,1.0843,1.0885,1.09,1.0932,1.0919,1.0934,1.0938,1.0943,1.0947,1.0842,1.0938,1.0938,1.0938,1.0937,1.0937,0,1.0653,1.0665,1.0697,1.0729,1.0755,1.0742,1.0766,1.079,1.0826,1.0847,1.0875,1.0918,1.0952,1.0965,1.0999,1.1023,1.1019,1.1032,1.1031,1.1034,1.0957,1.0945,1.1034,1.1034,1.1034,1.1034,1.1034,1.1034,1.0707,1.0757,1.0759,1.0817,1.0829,1.0869,1.0884,1.0904,1.0921,1.0969,1.0997,1.1005,1.1023,1.1058,1.1089,1.1092,1.1105,1.112,1.1122,1.1049,1.104,1.103,1.1019,1.1123,1.1123,1.1196,1.1197,1.1198]}]]